Weather History for Vero Beach, FL

Change the Weather History Date:

Tuesday, March 11, 2014

  Actual Average Record
Temperature  
Mean Temperature 67 °F 67 °F  
Max Temperature 78 °F 77 °F 88 °F (1986)
Min Temperature 56 °F 57 °F 40 °F (1961)
Degree Days  
Heating Degree Days 0 2  
Month to date heating degree days 5 27  
Since 1 July heating degree days 240 412  
Cooling Degree Days 2 4  
Month to date cooling degree days 31 44  
Year to date cooling degree days 239 183  
Growing Degree Days 17 (Base 50)    
Moisture  
Dew Point 60 °F    
Average Humidity 73    
Maximum Humidity 100    
Minimum Humidity 46    
Precipitation  
Precipitation 0.00 in 0.13 in 3.22 in (2010)
Month to date precipitation 0.07 1.34  
Year to date precipitation 6.62 6.51  
Sea Level Pressure  
Sea Level Pressure 29.94 in    
Wind  
Wind Speed 7 mph (SSW)    
Max Wind Speed 15 mph    
Max Gust Speed 20 mph    
Visibility 10 miles    
Events      
T = Trace of Precipitation, MM = Missing Value Source: NWS Daily Summary

Daily Weather History Graph

Daily Weather History Graph

Search for Another Location

Airport:

Trip Planner

Search our weather history database for the weather conditions in past years. The results will help you decide how hot, cold, wet, or windy it might be!

Date:

Astronomy

Mar. 11, 2014 Rise Set
Actual Time 7:35 AM EDT 7:28 PM EDT
Civil Twilight 7:12 AM EDT 7:51 PM EDT
Nautical Twilight 6:45 AM EDT 8:18 PM EDT
Astronomical Twilight 6:18 AM EDT 8:45 PM EDT
Moon 3:20 PM EDT (3/11) 4:09 AM EDT (3/11)
Length of Visible Light 12h 39m
Length of Day
11h 52m
Waxing Gibbous, 78% of the Moon is Illuminated
Mar 11
Waxing Gibbous
Mar 16
Full
Mar 23
Last Quarter
Mar 30
New
Apr 7
First Quarter

Hourly Weather History & Observations

Time (EDT) Temp. Dew Point Humidity Pressure Visibility Wind Dir Wind Speed Gust Speed Precip Events Conditions
12:53 AM 64.0 °F 63.0 °F 96% 30.00 in 7.0 mi WNW 6.9 mph - N/A   Clear
1:53 AM 63.0 °F 62.1 °F 97% 29.99 in 8.0 mi West 5.8 mph - N/A   Clear
2:53 AM 62.1 °F 60.1 °F 93% 29.98 in 10.0 mi WSW 5.8 mph - N/A   Clear
3:53 AM 61.0 °F 57.0 °F 87% 29.96 in 10.0 mi WSW 4.6 mph - N/A   Clear
4:53 AM 59.0 °F 55.9 °F 90% 29.96 in 10.0 mi WSW 5.8 mph - N/A   Clear
5:53 AM 57.0 °F 55.0 °F 93% 29.96 in 9.0 mi West 4.6 mph - N/A   Mostly Cloudy
6:53 AM 57.9 °F 55.0 °F 90% 29.96 in 9.0 mi West 5.8 mph - N/A   Mostly Cloudy
7:53 AM 57.9 °F 55.0 °F 90% 29.98 in 7.0 mi West 3.5 mph - N/A   Scattered Clouds
8:53 AM 62.1 °F 57.9 °F 86% 29.99 in 10.0 mi WNW 6.9 mph - N/A   Clear
9:53 AM 69.1 °F 57.0 °F 65% 29.99 in 10.0 mi NNW 4.6 mph - N/A   Partly Cloudy
10:53 AM 73.0 °F 53.1 °F 49% 29.99 in 10.0 mi Calm Calm - N/A   Clear
11:53 AM 75.0 °F 53.1 °F 46% 29.97 in 10.0 mi Calm Calm - N/A   Clear
12:53 PM 75.0 °F 57.0 °F 53% 29.96 in 10.0 mi Variable 4.6 mph - N/A   Clear
1:53 PM 75.0 °F 57.9 °F 55% 29.94 in 10.0 mi ENE 5.8 mph - N/A   Clear
2:53 PM 77.0 °F 59.0 °F 54% 29.91 in 10.0 mi ESE 9.2 mph - N/A   Clear
3:53 PM 77.0 °F 59.0 °F 54% 29.88 in 10.0 mi ESE 10.4 mph - N/A   Clear
4:53 PM 77.0 °F 61.0 °F 58% 29.87 in 10.0 mi SE 13.8 mph - N/A   Clear
5:53 PM 77.0 °F 64.0 °F 64% 29.86 in 10.0 mi ESE 10.4 mph - N/A   Clear
6:53 PM 75.9 °F 64.9 °F 69% 29.87 in 10.0 mi SE 10.4 mph - N/A   Clear
7:53 PM 73.9 °F 66.9 °F 79% 29.88 in 10.0 mi SE 8.1 mph - N/A   Clear
8:53 PM 73.9 °F 66.9 °F 79% 29.89 in 10.0 mi SSE 9.2 mph - N/A   Clear
9:53 PM 73.0 °F 64.9 °F 76% 29.89 in 10.0 mi South 8.1 mph - N/A   Partly Cloudy
10:53 PM 73.0 °F 64.9 °F 76% 29.89 in 10.0 mi South 10.4 mph - N/A   Scattered Clouds
11:53 PM 73.0 °F 64.0 °F 73% 29.88 in 10.0 mi SSW 13.8 mph - N/A   Clear